Location: Goldmont Forest
(38.0233°N, 120.2524°W)
Time: 21:49:35
(UTC+00:00)

USA 234 - Pass Details

Date: 05 August 2024
Orbit: 1100 x 1107 km, 123.0° (Epoch: 08 July)

Event Time Altitude Azimuth Distance (km) Brightness Sun altitude
Rises 12:02:34 0° 43° (NE) 3,930 7.9 -12.3°
Reaches altitude 10° 12:05:03 10° 42° (NE) 2,969 6.9 -11.8°
Maximum altitude 12:11:36 78° 318° (NW) 1,130 3.3 -10.7°
Enters shadow 12:17:49 12° 233° (SW) 2,840 4.8 -9.7°
